User: anonymous   Login
Location: Unspecified
(0.0000°N, 0.0000°E)
Time: 10:52:16
(UTC+00:00)
Language:

GSAT 7 - Orbit

View from above orbital plane
View from above orbital plane
View from above satellite
View from above satellite

Ground track
Ground track

The orbit data is extracted from the following two-line orbital elements,

1 39234U 13044B   16180.02602195 -.00000085  00000-0  00000+0 0  9997
2 39234   0.0766 273.2306 0008324   9.3164  77.3586  1.00271083 10396
Epoch (UTC): 28 June 2016 00:37:28
Eccentricity: 0.0008324
inclination: 0.0766°
perigee height: 35751 km
apogee height: 35821 km
right ascension of ascending node: 273.2306°
argument of perigee: 9.3164°
revolutions per day: 1.00271083
mean anomaly at epoch: 77.3586°
orbit number at epoch: 1039

The dashed part of the orbit path shows where the satellite is in the earth's shadow,  

DLR